View from above orbital plane
|
View from above satellite
|
Ground track
|
The orbit data is extracted from the following two-line orbital elements,
1 15369U 84111A 13144.13285666 .00003545 00000-0 23215-3 0 2557
2 15369 082.5083 136.7661 0012671 006.4264 353.7124 15.07392199556008
| Epoch (UTC): | 24 May 2013 03:11:18 |
| Eccentricity: | 0.0012671 |
| inclination: | 82.5083° |
| perigee height: | 535 km |
| apogee height: | 553 km |
| right ascension of ascending node: | 136.7661° |
| argument of perigee: | 6.4264° |
| revolutions per day: | 15.07392199 |
| mean anomaly at epoch: | 353.7124° |
| orbit number at epoch: | 55600 |
The dashed part of the orbit path shows where the satellite is in the earth's shadow,
|
|